Regional Weather Roundup
Issued by NWS Mt. Holly, NJ

Home | Current Version | Previous Version | Text Only | Print | Product List | Glossary On
Versions: 1 2 3 4 5 6 7 8 9 10 11 12 13 14 15 16 17 18 19 20 21 22 23 24 25 26 27
000
ASUS41 KPHI 201111
RWRPHI

REGIONAL WEATHER ROUNDUP
NATIONAL WEATHER SERVICE MOUNT HOLLY NJ
600 AM EST MON NOV 20 2017

NOTE:  "FAIR" INDICATES FEW OR NO CLOUDS BELOW 12,000 FEET WITH NO
SIGNIFICANT WEATHER AND/OR OBSTRUCTIONS TO VISIBILITY.

 * = STATION DOES NOT REPORT PRECIPITATION (E.G. RAIN, SNOW, ETC.)
        OR FOG.

NJZ015>026-201200-
SOUTHERN NEW JERSEY

CITY           SKY/WX    TMP DP  RH WIND       PRES   REMARKS
POMONA         CLEAR     38  26  62 W12       30.04R WCI  30
MILLVILLE      CLEAR     39  24  55 W16G26    30.06R WCI  30
WRIGHTSTOWN    PTCLDY    36  23  59 W12       29.99R WCI  28
MOUNT HOLLY    PTCLDY    38  24  57 W9G18     30.03R WCI  31
TRENTON        MOCLDY    37  23  56 W10       30.00R WCI  30

$$
NJZ001>014-201200-
NORTHERN NEW JERSEY

CITY           SKY/WX    TMP DP  RH WIND       PRES   REMARKS
SUSSEX         FLURRIES  33  26  75 VRB5      29.94R WCI  29
ANDOVER*       NOT AVBL
NEWARK         CLOUDY    37  26  64 W7        29.97R WCI  32
TETERBORO      CLOUDY    37  26  64 W9        29.96R WCI  30
CALDWELL       CLOUDY    35  27  72 VRB5      29.97R WCI  31
SOMERVILLE     CLEAR     36  24  62 VRB3G17   29.97R
ALLAIRE*       PTCLDY    35  24  64 W12       30.00R WCI  27
TOMS RIVER*    PTCLDY    36  24  62 W13G18    30.02R WCI  27

$$
PAZ043-044-047-054-055-060>062-066>071-201200-
EASTERN PENNSYLVANIA

CITY           SKY/WX    TMP DP  RH WIND       PRES   REMARKS
PHILADELPHIA   PTCLDY    38  23  55 W15       30.05R WCI  29
NORTH PHILA    PTCLDY    38  23  55 W13G23    30.03R WCI  30
BLUE BELL*     PTCLDY    34  25  69 W7        30.04R WCI  28
DOYLESTOWN     PTCLDY    35  22  58 W7G17     29.99R WCI  29
QUAKERTOWN*    PTCLDY    36  23  60 W13G22    29.99R WCI  27
PERKASIE*      FAIR      34  23  64 W10G16    30.00R WCI  26
POTTSTOWN      MOCLDY    34  22  61 W3        30.04R
LANCASTER      CLEAR     33  23  66 W10       30.05R WCI  25
COATESVILLE    CLEAR     32  21  64 W6        30.04R WCI  26
READING        PTCLDY    35  24  64 W8        30.02R WCI  29
ALLENTOWN      CLOUDY    37  23  56 W12       29.98R WCI  29
MOUNT POCONO   NOT AVBL
HAZLETON       CLOUDY    32  23  69 W8G24     29.96R WCI  25
LEHIGHTON      PTSUNNY   34  23  64 W7        29.99R WCI  28
WILKES BARRE   LGT SNOW  32  26  78 SW7       29.95R WCI  26

$$
DEZALL-MDZ008-012-015-019-020-201200-
DELAWARE AND EASTERN MARYLAND

CITY           SKY/WX    TMP DP  RH WIND       PRES   REMARKS
WILMINGTON     CLEAR     36  22  56 W12       30.07R WCI  28
DOVER          CLEAR     38  26  62 W14G22    30.08R WCI  29
GEORGETOWN     CLEAR     40  23  50 NW5       30.10R
EASTON         MOCLDY    41  23  48 NW13      30.14R
ABERDEEN       CLEAR     35  19  51 W8        30.09R WCI  29
OCEAN CITY     CLEAR     38  25  59 NW5       30.11R WCI  34
WALLOPS ISLAND CLEAR     38  28  67 NW6       30.11R WCI  33
CAMBRIDGE      CLOUDY    41  25  52 W12       30.11R
SALISBURY      PTCLDY    37  27  67 W5        30.10R WCI  33

$$
PAZ001-021-NYZ056-072-MDZ011-DCZ001-201200-
OTHER NEARBY LOCATIONS

CITY           SKY/WX    TMP DP  RH WIND       PRES   REMARKS
HARRISBURG     PTCLDY    36  23  59 W14       30.05R WCI  27
WILLIAMSPORT   CLOUDY    36  26  67 W10       29.99R WCI  28
BINGHAMTON     CLOUDY    28  17  63 W12G22    29.87R WCI  18
NEW YORK CITY  NOT AVBL
BALTIMORE      PTCLDY    37  23  56 W8        30.09R WCI  31
WASHINGTON DC  PTCLDY    40  20  44 NW9       30.13R WCI  34

$$




USA.gov is the U.S. government's official web portal to all federal, state and local government web resources and services.